Time,TemperatureF,DewpointF,PressureIn,WindDirection,WindDirectionDegrees,WindSpeedMPH,WindSpeedGustMPH,Humidity,HourlyPrecipIn,Conditions,Clouds,dailyrainin,SoftwareType,DateUTC
2013-12-30 01:53:00,40.0,-99.9,29.63,NNW,335,2.0,4.0,-999,-99.99,,,-99.99,,2013-12-30 06:53:00,
2013-12-30 06:53:00,37.0,-99.9,29.76,SSW,203,4.0,6.0,-999,-99.99,,,-99.99,,2013-12-30 11:53:00,
2013-12-30 09:22:00,39.0,-99.9,29.85,WSW,252,3.0,8.0,-999,-99.99,,,-99.99,,2013-12-30 14:22:00,
2013-12-30 13:52:00,39.0,-99.9,29.91,North,354,8.0,13.0,-999,-99.99,,,-99.99,,2013-12-30 18:52:00,
2013-12-30 17:13:00,-999.0,-99.9,30.04,North,350,9.0,12.0,-999,-99.99,,,-99.99,,2013-12-30 22:13:00,
2013-12-30 17:23:00,-999.0,-99.9,30.05,North,352,9.0,12.0,-999,-99.99,,,-99.99,,2013-12-30 22:23:00,
2013-12-30 17:33:00,-999.0,-99.9,30.05,NNW,336,7.0,12.0,-999,-99.99,,,-99.99,,2013-12-30 22:33:00,
2013-12-30 17:43:00,-999.0,-99.9,30.05,NW,322,5.0,13.0,-999,-99.99,,,-99.99,,2013-12-30 22:43:00,
2013-12-30 17:53:00,31.0,-99.9,30.05,NNW,335,5.0,8.0,-999,-99.99,,,-99.99,,2013-12-30 22:53:00,
2013-12-30 18:02:00,-999.0,-99.9,30.06,NNW,328,6.0,10.0,-999,-99.99,,,-99.99,,2013-12-30 23:02:00,
2013-12-30 18:12:00,-999.0,-99.9,30.06,NW,325,6.0,11.0,-999,-99.99,,,-99.99,,2013-12-30 23:12:00,
2013-12-30 18:22:00,-999.0,-99.9,30.07,NW,322,6.0,9.0,-999,-99.99,,,-99.99,,2013-12-30 23:22:00,
2013-12-30 18:33:00,-999.0,-99.9,30.06,NW,305,4.0,9.0,-999,-99.99,,,-99.99,,2013-12-30 23:33:00,
2013-12-30 18:42:00,-999.0,-99.9,30.07,NNW,343,8.0,13.0,-999,-99.99,,,-99.99,,2013-12-30 23:42:00,
2013-12-30 19:02:00,-999.0,-99.9,30.08,NNW,341,7.0,11.0,-999,-99.99,,,-99.99,,2013-12-31 00:02:00,
2013-12-30 19:12:00,-999.0,-99.9,30.08,NNW,338,6.0,10.0,-999,-99.99,,,-99.99,,2013-12-31 00:12:00,
2013-12-30 19:22:00,-999.0,-99.9,30.09,North,353,7.0,12.0,-999,-99.99,,,-99.99,,2013-12-31 00:22:00,
2013-12-30 19:32:00,-999.0,-99.9,30.09,North,354,11.0,22.0,-999,-99.99,,,-99.99,,2013-12-31 00:32:00,
2013-12-30 19:42:00,-999.0,-99.9,30.10,NNW,348,8.0,14.0,-999,-99.99,,,-99.99,,2013-12-31 00:42:00,
2013-12-30 20:02:00,-999.0,-99.9,30.11,NNW,339,5.0,10.0,-999,-99.99,,,-99.99,,2013-12-31 01:02:00,
2013-12-30 20:12:00,-999.0,-99.9,30.11,NNW,341,8.0,12.0,-999,-99.99,,,-99.99,,2013-12-31 01:12:00,
2013-12-30 20:22:00,-999.0,-99.9,30.11,NNW,345,6.0,11.0,-999,-99.99,,,-99.99,,2013-12-31 01:22:00,
2013-12-30 20:32:00,-999.0,-99.9,30.11,NNW,334,7.0,12.0,-999,-99.99,,,-99.99,,2013-12-31 01:32:00,
2013-12-30 20:42:00,-999.0,-99.9,30.12,NNW,346,8.0,12.0,-999,-99.99,,,-99.99,,2013-12-31 01:42:00,
2013-12-30 21:02:00,-999.0,-99.9,30.13,NNW,329,6.0,11.0,-999,-99.99,,,-99.99,,2013-12-31 02:02:00,
2013-12-30 21:12:00,-999.0,-99.9,30.14,NNW,348,9.0,11.0,-999,-99.99,,,-99.99,,2013-12-31 02:12:00,
2013-12-30 21:22:00,-999.0,-99.9,30.14,NNW,342,6.0,8.0,-999,-99.99,,,-99.99,,2013-12-31 02:22:00,
2013-12-30 21:32:00,-999.0,-99.9,30.14,NNW,341,3.0,11.0,-999,-99.99,,,-99.99,,2013-12-31 02:32:00,
2013-12-30 21:42:00,-999.0,-99.9,30.15,NNW,338,5.0,9.0,-999,-99.99,,,-99.99,,2013-12-31 02:42:00,
2013-12-30 22:02:00,-999.0,-99.9,30.16,NNW,333,5.0,8.0,-999,-99.99,,,-99.99,,2013-12-31 03:02:00,
2013-12-30 22:12:00,-999.0,-99.9,30.15,NNW,330,6.0,9.0,-999,-99.99,,,-99.99,,2013-12-31 03:12:00,
2013-12-30 22:22:00,-999.0,-99.9,30.15,NNW,346,3.0,7.0,-999,-99.99,,,-99.99,,2013-12-31 03:22:00,
2013-12-30 22:33:00,-999.0,-99.9,30.15,NNW,341,5.0,8.0,-999,-99.99,,,-99.99,,2013-12-31 03:33:00,
2013-12-30 22:43:00,-999.0,-99.9,30.14,NNW,337,5.0,9.0,-999,-99.99,,,-99.99,,2013-12-31 03:43:00,
2013-12-30 23:03:00,-999.0,-99.9,30.15,North,349,7.0,11.0,-999,-99.99,,,-99.99,,2013-12-31 04:03:00,
2013-12-30 23:13:00,-999.0,-99.9,30.15,NNW,347,7.0,11.0,-999,-99.99,,,-99.99,,2013-12-31 04:13:00,
2013-12-30 23:23:00,-999.0,-99.9,30.15,NNW,346,7.0,10.0,-999,-99.99,,,-99.99,,2013-12-31 04:23:00,
2013-12-30 23:33:00,-999.0,-99.9,30.15,North,349,6.0,9.0,-999,-99.99,,,-99.99,,2013-12-31 04:33:00,
2013-12-30 23:43:00,-999.0,-99.9,30.14,NNW,344,6.0,9.0,-999,-99.99,,,-99.99,,2013-12-31 04:43:00,